SCP
0 0 0 0 0 0 0 0 0 0 0 0 0 0 0 0 0 0 0 0 0 0
0 0 0 0 0 0 0 0 0 0 0 0 0 0 0 0 0 0 0 0 0 0
0 0 0 0 0 0 0 0 0 0 0 0 0 0 0 0 0 0 0 0 0 0
0 0 0 0 0 0 0 0 0 0 0 0 0 0 0 0 0 0 0 0 0 0
0 0 0 0 0 0 0 0 0 0 0 0 0 0 0 0 0 0 0 0 0 0
0 0 0 0 0 0 0 0 0 0 0 0 0 0 0 0 0 0 0 0 0 0
0 0 0 0 0 0 0 0 0 0 0 0 0 0 0 0 0 0 0 0 0 0
0 0 0 0 0 0 0 0 0 0 0 0 0 0 0 0 0 0 0 0 0 0
0 0 0 0 0 0 0 0 0 0 0 0 0 0 0 0 0 0 0 0 0 0
0 0 0 0 0 0 0 0 0 0 0 0 0 0 0 0 0 0 0 0 0 0
0 0 0 0 0 0 0 0 0 0 0 0 0 0 0 0 0 0 0 0 0 0
0 0 0 0 0 0 0 0 0 0 0 0 0 0 0 0 0 0 0 0 0 0
0 0 0 0 0 0 0 0 0 0 0 0 0 0 0 0 0 0 0 0 0 0
0 0 0 0 0 0 0 0 0 0 0 0 0 0 0 0 0 0 0 0 0 0
Wind_Speed_500mb
34 28 27 32 39 46 48 48 48 49 52 54 55 54 55 57 58 59 60 62 62 63
30 26 28 34 40 43 44 45 46 49 51 52 52 51 53 55 57 59 59 59 62 62
25 26 29 36 39 39 41 44 47 49 50 50 50 50 52 55 57 57 58 58 61 66
25 26 31 34 36 37 40 43 46 47 47 49 49 50 53 55 56 55 58 58 60 60
23 27 29 32 33 36 40 42 44 44 45 46 48 51 53 54 53 53 55 58 56 57
23 24 27 29 31 35 39 41 41 41 43 46 49 52 52 52 50 52 57 57 56 58
21 23 24 27 30 35 39 41 40 40 42 46 48 50 50 49 55 59 61 61 61 60
19 20 22 25 30 34 36 38 39 41 42 45 46 49 45 50 59 63 65 66 64 61
16 17 20 25 29 32 34 37 40 41 43 45 45 45 41 45 55 58 62 65 58 52
13 16 19 24 27 30 34 38 41 43 43 45 46 46 42 45 49 54 56 56 55 54
12 15 18 22 25 29 34 37 42 44 45 48 49 45 42 44 47 55 57 53 53 52
11 14 17 21 24 29 33 37 42 45 48 48 43 37 39 43 52 57 56 55 51 51
9 13 17 20 23 28 33 38 40 44 42 38 39 37 39 43 50 55 57 55 59 57
8 11 16 20 25 29 32 35 39 40 38 40 42 44 41 42 46 53 61 70 70 62
Wind_Direction_500mb
237 254 279 297 310 317 319 320 323 322 321 319 318 318 316 312 311 310 307 302 301 300
241 263 286 302 310 316 318 319 320 319 318 318 318 317 316 315 314 312 309 304 302 302
247 270 290 301 311 315 316 317 317 319 318 317 319 318 319 316 315 312 308 304 302 300
249 275 292 306 310 314 315 316 317 318 318 318 320 320 318 316 315 311 309 312 312 310
256 279 296 304 310 312 314 317 317 318 317 318 321 319 317 317 317 314 317 321 319 316
261 285 297 305 309 310 314 316 318 318 317 320 322 319 319 318 319 320 323 323 321 316
268 286 298 305 308 312 315 318 319 319 320 322 321 320 320 322 323 322 322 322 320 317
271 287 298 304 310 313 317 319 320 322 323 321 322 323 322 321 316 317 319 320 317 314
272 289 300 307 312 316 320 322 322 324 322 322 322 321 315 310 311 313 314 318 320 319
272 291 303 310 316 321 324 325 326 325 324 322 321 320 315 311 310 313 320 324 323 322
275 295 307 314 322 326 326 330 329 328 327 322 321 321 317 315 315 318 321 324 324 323
283 303 312 322 328 329 332 333 331 329 326 325 329 331 323 321 318 319 322 322 321 321
293 309 322 329 333 337 337 332 331 330 331 337 335 338 329 322 320 320 322 326 324 321
301 323 330 333 341 342 336 333 333 336 340 343 346 339 331 326 324 322 322 319 320 318
Wind_Speed_850mb
34 28 27 32 39 46 48 48 48 49 52 54 55 54 55 57 58 59 60 62 62 63
30 26 28 34 40 43 44 45 46 49 51 52 52 51 53 55 57 59 59 59 62 62
25 26 29 36 39 39 41 44 47 49 50 50 50 50 52 55 57 57 58 58 61 66
25 26 31 34 36 37 40 43 46 47 47 49 49 50 53 55 56 55 58 58 60 60
23 27 29 32 33 36 40 42 44 44 45 46 48 51 53 54 53 53 55 58 56 57
23 24 27 29 31 35 39 41 41 41 43 46 49 52 52 52 50 52 57 57 56 58
21 23 24 27 30 35 39 41 40 40 42 46 48 50 50 49 55 59 61 61 61 60
19 20 22 25 30 34 36 38 39 41 42 45 46 49 45 50 59 63 65 66 64 61
16 17 20 25 29 32 34 37 40 41 43 45 45 45 41 45 55 58 62 65 58 52
13 16 19 24 27 30 34 38 41 43 43 45 46 46 42 45 49 54 56 56 55 54
12 15 18 22 25 29 34 37 42 44 45 48 49 45 42 44 47 55 57 53 53 52
11 14 17 21 24 29 33 37 42 45 48 48 43 37 39 43 52 57 56 55 51 51
9 13 17 20 23 28 33 38 40 44 42 38 39 37 39 43 50 55 57 55 59 57
8 11 16 20 25 29 32 35 39 40 38 40 42 44 41 42 46 53 61 70 70 62
Wind_Direction_850mb
237 254 279 297 310 317 319 320 323 322 321 319 318 318 316 312 311 310 307 302 301 300
241 263 286 302 310 316 318 319 320 319 318 318 318 317 316 315 314 312 309 304 302 302
247 270 290 301 311 315 316 317 317 319 318 317 319 318 319 316 315 312 308 304 302 300
249 275 292 306 310 314 315 316 317 318 318 318 320 320 318 316 315 311 309 312 312 310
256 279 296 304 310 312 314 317 317 318 317 318 321 319 317 317 317 314 317 321 319 316
261 285 297 305 309 310 314 316 318 318 317 320 322 319 319 318 319 320 323 323 321 316
268 286 298 305 308 312 315 318 319 319 320 322 321 320 320 322 323 322 322 322 320 317
271 287 298 304 310 313 317 319 320 322 323 321 322 323 322 321 316 317 319 320 317 314
272 289 300 307 312 316 320 322 322 324 322 322 322 321 315 310 311 313 314 318 320 319
272 291 303 310 316 321 324 325 326 325 324 322 321 320 315 311 310 313 320 324 323 322
275 295 307 314 322 326 326 330 329 328 327 322 321 321 317 315 315 318 321 324 324 323
283 303 312 322 328 329 332 333 331 329 326 325 329 331 323 321 318 319 322 322 321 321
293 309 322 329 333 337 337 332 331 330 331 337 335 338 329 322 320 320 322 326 324 321
301 323 330 333 341 342 336 333 333 336 340 343 346 339 331 326 324 322 322 319 320 318